Location: Albuquerque Trailhead
(34.7934°N, 106.3736°W)
Time: 19:18:25
(UTC+00:00)

NOAA 19 - Pass Details

Date: 07 April 2023
Orbit: 840 x 859 km, 99.1° (Epoch: 31 May)

Event Time Altitude Azimuth Distance (km) Brightness Sun altitude
Exits shadow 01:54:00 - 123° (ESE) 2,964 7.4 -5.6°
Reaches altitude 10° 01:55:37 10° 113° (ESE) 2,461 7.0 -5.9°
Maximum altitude 01:59:38 21° 66° (ENE) 1,793 6.5 -6.7°
Drops below altitude 10° 02:03:38 10° 18° (NNE) 2,465 7.6 -7.5°
Sets 02:06:30 0° 3° (N) 3,402 8.5 -8.1°
